Miscellaneous Local Product
Issued by NWS Hastings, NE

Home | Current Version | Previous Version | Graphics & Text | Print | Product List | Glossary On
Versions: 1 2 3 4 5 6 7 8 9 10 11 12 13 14 15 16 17 18 19 20 21 22 23 24 25 26 27 28 29 30 31 32 33 34 35 36 37 38 39 40 41 42 43 44 45 46 47 48 49 50
000
AXUS43 KGID 281402
MISGRI

GID CWA HOURLY WEATHER ROUNDUP
NATIONAL WEATHER SERVICE HASTINGS NE
900 AM CDT MON JUL 28 2014

NOTE: "FAIR" INDICATES FEW OR NO CLOUDS BELOW 12,000 FEET WITH NO
SIGNIFICANT WEATHER AND/OR OBSTRUCTIONS TO VISIBILITY.

...SOUTH CENTRAL NEBRASKA...

CITY           SKY/WX    TMP DP  RH WIND       PRES   REMARKS
GRAND ISLAND   SUNNY     65  55  70 N8        30.33R
HASTINGS       SUNNY     65  55  70 N9        30.33R
KEARNEY        SUNNY     63  55  77 N8        30.34R
ORD            SUNNY     62  55  77 N6        30.32F
YORK           SUNNY     63  59  88 N9        30.31S
AURORA         SUNNY     64  59  82 N6        30.32R
LEXINGTON      SUNNY     63  57  79 E5        30.35R
HOLDREGE       SUNNY     64  55  75 E8        30.35R
HEBRON         SUNNY     65  55  70 N9        30.30R

...NEBRASKA PANHANDLE...

CITY           SKY/WX    TMP DP  RH WIND       PRES   REMARKS
CHADRON        MOSUNNY   64  53  67 NE5       30.34S
ALLIANCE       SUNNY     66  51  58 E18       30.35S
SCOTTSBLUFF    SUNNY     64  51  62 E12       30.35R
SIDNEY         SUNNY     68  49  50 SE8       30.35R

...WESTERN AND NORTH CENTRAL NEBRASKA...

CITY           SKY/WX    TMP DP  RH WIND       PRES   REMARKS
VALENTINE      SUNNY     63  52  67 E5        30.36S
AINSWORTH      SUNNY     60  54  79 CALM      30.36S
ONEILL         SUNNY     60  55  81 NW6       30.34S
BROKEN BOW     SUNNY     64  55  72 NE6       30.34S
IMPERIAL       SUNNY     66  56  70 SE13      30.34R
NORTH PLATTE   SUNNY     63  56  78 E12       30.35S
MCCOOK         MOSUNNY   64  57  78 E10       30.34R

...EASTERN NEBRASKA...

CITY           SKY/WX    TMP DP  RH WIND       PRES   REMARKS
NORFOLK        SUNNY     64  55  72 N9        30.29S
SO SIOUX CITY  PTSUNNY   67  58  72 N9        30.26S
ALBION         SUNNY     61  55  82 NW9       30.32S
OMAHA EPPLEY   PTSUNNY   63  55  75 N12       30.26R
OFFUTT AFB     CLOUDY    65  59  81 N8        30.25S
MILLARD        CLOUDY    65  56  71 N3        30.26R
LINCOLN        MOSUNNY   68  55  63 N10       30.30R
NEBRASKA CITY  SUNNY     64  57  78 N9        30.26R
BEATRICE       SUNNY     64  58  79 N9        30.28R
FALLS CITY     SUNNY     66  58  75 N8        30.24R

...NORTHERN KANSAS...

CITY           SKY/WX    TMP DP  RH WIND       PRES   REMARKS
GOODLAND       MOSUNNY   70  52  52 S10       30.35R
HILL CITY      SUNNY     67  58  72 E8        30.35R
NORTON         SUNNY     66  55  68 E8        30.34R
PHILLIPSBURG   SUNNY     66  55  68 E6        30.33R
SMITH CENTER   SUNNY     66  54  63 NE7       30.33R
HAYS           SUNNY     66  55  68 E7        30.34R
RUSSELL        SUNNY     68  58  70 NE8       30.31R
CONCORDIA      MOSUNNY   67  57  70 N8        30.30R
SALINA         MOSUNNY   70  57  63 NE6       30.29R
TOPEKA         SUNNY     70  59  68 N10       30.24R



USA.gov is the U.S. government's official web portal to all federal, state and local government web resources and services.